{"data":{"norad_id":67383,"intl_designator":"2026-004W","name":"AETHER-12","alt_names":[],"object_type":"PAYLOAD","status":"ACTIVE","operator":null,"country":"CA","launch_date":"2026-01-11","launch_site_code":"AFWTR","launch_vehicle":null,"mission":null,"orbit_class":"UNKNOWN","rcs_meters":null,"size_class":null,"mass_kg":null,"dimensions":null,"purposes":[],"wikipedia_slug":null,"has_3d_model":false,"image_url":null,"decayed_at":null,"tle_current":{"epoch":"2026-05-24T23:52:45.997248Z","epoch_age_seconds":69451,"freshness":"FRESH","line1":"1 67383U 26004W   26144.99497682  .00000535  00000+0  66862-4 0  9994","line2":"2 67383  97.8007 143.9151 0003437 175.3661 184.7587 14.86303591 19831","mean_motion":14.86303591,"eccentricity":0.0003437,"inclination_deg":97.8007,"raan_deg":143.9151,"arg_perigee_deg":175.3661,"mean_anomaly_deg":184.7587,"bstar":6.6862e-5,"rev_number":1983,"period_min":96.884647841775,"perigee_km":607.09546731245,"apogee_km":611.89876700458,"semimajor_km":6987.6341171585,"source":"CELESTRAK","updated_at":"2026-05-25T13:38:06.932431Z"}}}